Location: Centerville
(32.8776°N, 96.6203°W)
Time: 05:41:52
(UTC+00:00)

Cosmos 1300 Rocket - Pass Details

Date: 17 June 2021
Orbit: 602 x 626 km, 82.5° (Epoch: 29 July)

Event Time Altitude Azimuth Distance (km) Brightness Sun altitude
Rises 02:12:48 0° 356° (N) 2,857 7.6 -7.3°
Reaches altitude 10° 02:15:01 10° 358° (N) 1,951 6.7 -7.7°
Maximum altitude 02:19:19 71° 83° (E) 639 3.5 -8.4°
Drops below altitude 10° 02:23:37 10° 168° (SSE) 1,945 5.7 -9.1°
Enters shadow 02:24:57 - 169° (S) 2,489 6.2 -9.4°
